OE3MNS-12 Weather Reports


time (UTC)temp
C
wind
direction
speed
KPH
gust
KPH
rain 1hr
cm
rain 24hr
cm
rain mn
cm
humidity
%
barometer
mb
20260505203040 18 188 6.4 14.5 0.00 0.00 0.00 49 1005.2
20260505202017 18 175 4.8 9.7 0.00 0.00 0.00 48 1005.1
20260505201040 18 192 3.2 6.4 0.00 0.00 0.00 48 1005.0
20260505200019 18 156 4.8 11.3 0.00 0.00 0.00 47 1004.8
20260505195020 19 175 3.2 6.4 0.00 0.00 0.00 47 1004.7
20260505194020 19 176 3.2 6.4 0.00 0.00 0.00 46 1004.6
20260505193041 19 177 3.2 9.7 0.00 0.00 0.00 45 1004.7
20260505192018 20 182 3.2 9.7 0.00 0.00 0.00 45 1004.6
20260505191021 20 174 3.2 6.4 0.00 0.00 0.00 44 1004.5
20260505190019 20 186 4.8 12.9 0.00 0.00 0.00 44 1004.5
20260505185143 20 181 3.2 9.7 0.00 0.00 0.00 43 1004.4
20260505184039 21 175 3.2 6.4 0.00 0.00 0.00 42 1004.3
20260505183018 21 177 4.8 9.7 0.00 0.00 0.00 42 1004.2
20260505182019 21 157 4.8 11.3 0.00 0.00 0.00 41 1004.3
20260505181019 22 151 4.8 12.9 0.00 0.00 0.00 40 1004.2
20260505180041 22 168 6.4 16.1 0.00 0.00 0.00 39 1004.2
20260505175017 22 165 6.4 17.7 0.00 0.00 0.00 39 1004.1
20260505174020 23 159 6.4 17.7 0.00 0.00 0.00 38 1004.1
20260505173017 23 147 4.8 12.9 0.00 0.00 0.00 38 1004.1
20260505172020 23 117 6.4 17.7 0.00 0.00 0.00 37 1003.9
20260505171018 24 93 4.8 12.9 0.00 0.00 0.00 36 1004.0
20260505170020 25 92 4.8 12.9 0.00 0.00 0.00 36 1004.0
20260505165517 25 142 6.4 22.5 0.00 0.00 0.00 35 1004.1
20260505164520 25 136 4.8 22.5 0.00 0.00 0.00 35 1004.1
20260505163525 25 154 9.7 20.9 0.00 0.00 0.00 34 1004.2
20260505162520 26 149 4.8 17.7 0.00 0.00 0.00 32 1004.1
20260505161518 26 161 9.7 24.1 0.00 0.00 0.00 31 1004.3
20260505160520 26 173 14.5 29.0 0.00 0.00 0.00 30 1004.2
20260505152545 26 144 9.7 33.8 0.00 0.00 0.00 29 1004.3
20260505151519 27 119 9.7 30.6 0.00 0.00 0.00 28 1004.1
20260505150521 27 125 9.7 29.0 0.00 0.00 0.00 27 1004.3
20260505125021 30 102 4.8 12.9 0.00 0.00 0.00 22 1005.7